Kalamazoo, MI

3:56 PM EDT on August 20, 2017 (GMT -0400)
Kalamazoo-Battle Creek International

Weather History for KAZO - January, 2009

Change the Weather History Date:

Thursday, January 1, 2009

  Actual Average Record
Temperature  
Mean Temperature 22 °F 25 °F  
Max Temperature 28 °F 31 °F 54 °F (2011)
Min Temperature 15 °F 19 °F -7 °F (1968)
Degree Days  
Heating Degree Days 44 40  
Month to date heating degree days 40  
Since 1 July heating degree days 2491  
Cooling Degree Days 0 0  
Month to date cooling degree days 0  
Year to date cooling degree days 0  
Moisture  
Dew Point 13 °F    
Average Humidity 68    
Maximum Humidity 86    
Minimum Humidity 56    
Precipitation  
Precipitation 0.00 in 0.07 in 1.73 in (1985)
Month to date precipitation 0.07  
Year to date precipitation 0.07  
Snow  
Snow 0.00 in - - ()
Snow Depth 2.00 in    
Sea Level Pressure  
Sea Level Pressure 30.12 in    
Wind  
Wind Speed 7 mph (South)    
Max Wind Speed 16 mph    
Max Gust Speed 21 mph    
Visibility 10 miles    
Events      
T = Trace of Precipitation, MM = Missing Value Source: NWS Daily Summary

Daily Weather History Graph

Daily Weather History Graph

Search for Another Location

Airport or City:

Trip Planner

Search our weather history database for the weather conditions in past years. The results will help you decide how hot, cold, wet, or windy it might be!

Date:

Astronomy

Jan. 01, 2009 Rise Set
Actual Time 8:11 AM EST 5:21 PM EST
Civil Twilight 7:39 AM EST 5:52 PM EST
Nautical Twilight 7:04 AM EST 6:27 PM EST
Astronomical Twilight 6:30 AM EST 7:01 PM EST
Moon 10:54 AM EST (1/1) 10:37 PM EST (1/1)
Length of Visible Light 10h 13m
Length of Day
9h 09m
Waxing Crescent, 23% of the Moon is Illuminated
Jan 1
Waxing Crescent
Jan 4
First Quarter
Jan 10
Full
Jan 17
Last Quarter
Jan 26
New

Hourly Weather History & Observations

Time (EST) Temp. Windchill Dew Point Humidity Pressure Visibility Wind Dir Wind Speed Gust Speed Precip Events Conditions
12:09 AM 15.8 °F - 12.2 °F 86% 30.33 in 9.0 mi Calm Calm - N/A   Scattered Clouds
12:25 AM 17.6 °F 12.3 °F 12.2 °F 79% 30.33 in 9.0 mi SSW 3.5 mph - N/A   Mostly Cloudy
12:53 AM 18.0 °F 11.1 °F 12.9 °F 81% 30.37 in 10.0 mi South 4.6 mph - N/A   Overcast
1:37 AM 17.6 °F 10.7 °F 12.2 °F 79% 30.29 in 10.0 mi SSE 4.6 mph - N/A   Scattered Clouds
1:53 AM 17.1 °F 10.0 °F 12.0 °F 81% 30.34 in 10.0 mi SSE 4.6 mph - N/A   Clear
2:53 AM 17.1 °F 10.0 °F 12.0 °F 81% 30.35 in 10.0 mi South 4.6 mph - N/A   Clear
3:53 AM 18.0 °F 9.8 °F 12.0 °F 78% 30.34 in 10.0 mi South 5.8 mph - N/A   Overcast
4:53 AM 18.0 °F 8.7 °F 12.0 °F 78% 30.32 in 10.0 mi South 6.9 mph - N/A   Scattered Clouds
5:53 AM 18.0 °F 7.7 °F 10.9 °F 74% 30.28 in 10.0 mi SSE 8.1 mph - N/A   Mostly Cloudy
6:53 AM 18.0 °F 5.4 °F 10.9 °F 74% 30.27 in 10.0 mi South 11.5 mph - N/A   Partly Cloudy
7:53 AM 18.0 °F 8.7 °F 10.9 °F 74% 30.26 in 10.0 mi SSE 6.9 mph - N/A   Mostly Cloudy
8:53 AM 19.0 °F 6.8 °F 12.0 °F 74% 30.25 in 10.0 mi South 11.5 mph 18.4 mph N/A   Overcast
9:53 AM 19.9 °F 8.6 °F 10.9 °F 68% 30.23 in 10.0 mi South 10.4 mph - N/A   Mostly Cloudy
10:53 AM 21.9 °F 10.4 °F 10.9 °F 63% 30.22 in 10.0 mi SSE 11.5 mph - N/A   Mostly Cloudy
11:53 AM 23.0 °F 13.1 °F 10.9 °F 60% 30.19 in 10.0 mi SSE 9.2 mph 17.3 mph N/A   Mostly Cloudy
12:53 PM 25.0 °F 13.6 °F 12.0 °F 58% 30.12 in 10.0 mi South 12.7 mph 19.6 mph N/A   Mostly Cloudy
1:53 PM 26.1 °F 16.8 °F 12.9 °F 58% 30.06 in 10.0 mi SSE 9.2 mph 18.4 mph N/A   Partly Cloudy
2:53 PM 27.0 °F 15.6 °F 12.9 °F 56% 30.01 in 10.0 mi South 13.8 mph 19.6 mph N/A   Mostly Cloudy
3:53 PM 27.0 °F 18.0 °F 14.0 °F 58% 29.96 in 10.0 mi SSE 9.2 mph 18.4 mph N/A   Mostly Cloudy
4:53 PM 28.0 °F 18.6 °F 14.0 °F 56% 29.92 in 10.0 mi South 10.4 mph - N/A   Overcast
5:53 PM 28.0 °F 18.1 °F 14.0 °F 56% 29.90 in 10.0 mi South 11.5 mph - N/A   Overcast
6:53 PM 28.0 °F 19.3 °F 15.1 °F 58% 29.87 in 10.0 mi South 9.2 mph - N/A   Overcast
7:53 PM 28.0 °F 18.1 °F 16.0 °F 61% 29.86 in 10.0 mi South 11.5 mph - N/A   Overcast
8:53 PM 28.9 °F 18.2 °F 17.1 °F 61% 29.82 in 10.0 mi South 13.8 mph - N/A   Overcast
9:53 PM 28.9 °F 17.3 °F 16.0 °F 58% 29.80 in 10.0 mi SSW 16.1 mph - N/A   Overcast
10:53 PM 28.9 °F 18.6 °F 16.0 °F 58% 29.79 in 10.0 mi SW 12.7 mph 20.7 mph N/A   Scattered Clouds
11:53 PM 28.9 °F 19.2 °F 18.0 °F 64% 29.78 in 10.0 mi WSW 11.5 mph - N/A   Mostly Cloudy